| time (UTC) | temp C | wind direction | speed KPH | gust KPH | rain 1hr cm | rain 24hr cm | rain mn cm | humidity % | barometer mb |
| 20260904020046 | 23 | 25 | 0.0 | 1.6 | 0.00 | 1.50 | 1.42 | 92 | 1014.5 |
| 20260904014557 | 23 | 28 | 0.0 | 0.0 | 0.00 | 1.50 | 1.42 | 91 | 1014.4 |
| 20260904013047 | 23 | 27 | 0.0 | 1.6 | 0.00 | 1.50 | 1.42 | 91 | 1014.4 |
| 20260904011543 | 23 | 23 | 0.0 | 1.6 | 0.00 | 1.50 | 1.42 | 91 | 1014.6 |
| 20260904010049 | 23 | 56 | 0.0 | 0.0 | 0.00 | 1.50 | 1.42 | 91 | 1014.5 |
| 20260904004544 | 23 | 56 | 0.0 | 0.0 | 0.00 | 1.50 | 1.42 | 91 | 1014.3 |
| 20260904003041 | 23 | 56 | 0.0 | 0.0 | 0.00 | 1.50 | 1.42 | 92 | 1014.2 |
| 20260904001541 | 23 | 56 | 0.0 | 0.0 | 0.00 | 1.50 | 1.42 | 92 | 1014.1 |
| 20260904000040 | 23 | 56 | 0.0 | 0.0 | 0.00 | 1.50 | 1.42 | 92 | 1014.1 |
| 20260903234539 | 23 | 56 | 0.0 | 0.0 | 0.00 | 1.50 | 1.42 | 92 | 1014.0 |
| 20260903233038 | 23 | 56 | 0.0 | 0.0 | 0.00 | 1.50 | 1.42 | 91 | 1013.9 |
| 20260903231542 | 24 | 55 | 0.0 | 0.0 | 0.00 | 1.50 | 1.42 | 91 | 1014.0 |
| 20260903230041 | 25 | 55 | 0.0 | 0.0 | 0.00 | 1.50 | 1.42 | 88 | 1013.9 |
| 20260903224556 | 25 | 55 | 0.0 | 0.0 | 0.00 | 1.50 | 1.42 | 87 | 1013.9 |
| 20260903223036 | 25 | 55 | 0.0 | 0.0 | 0.00 | 1.50 | 1.42 | 87 | 1013.9 |
| 20260903221536 | 26 | 55 | 0.0 | 0.0 | 0.00 | 1.50 | 1.42 | 86 | 1014.1 |
| 20260903220044 | 26 | 55 | 0.0 | 0.0 | 0.00 | 1.50 | 1.42 | 84 | 1013.9 |
| 20260903214540 | 26 | 55 | 0.0 | 0.0 | 0.00 | 1.50 | 1.42 | 84 | 1014.0 |
| 20260903213039 | 26 | 5 | 0.0 | 0.0 | 0.00 | 1.50 | 1.42 | 83 | 1013.7 |
| 20260903211539 | 27 | 5 | 0.0 | 3.2 | 0.00 | 1.50 | 1.42 | 81 | 1013.9 |
| 20260903210038 | 27 | 59 | 0.0 | 3.2 | 0.00 | 1.50 | 1.42 | 82 | 1014.0 |
| 20260903204529 | 26 | 311 | 0.0 | 1.6 | 0.00 | 1.50 | 1.42 | 84 | 1014.1 |
| 20260903203028 | 26 | 18 | 0.0 | 1.6 | 0.00 | 1.50 | 1.42 | 85 | 1014.1 |
| 20260903201527 | 26 | 56 | 0.0 | 3.2 | 0.00 | 1.50 | 1.42 | 84 | 1014.1 |
| 20260903200028 | 26 | 63 | 0.0 | 4.8 | 0.00 | 1.50 | 1.42 | 84 | 1014.0 |
| 20260903194524 | 26 | 32 | 1.6 | 6.4 | 0.00 | 1.50 | 1.42 | 83 | 1014.1 |
| 20260903193022 | 26 | 354 | 0.0 | 4.8 | 0.00 | 1.50 | 1.42 | 85 | 1014.3 |
| 20260903191519 | 25 | 345 | 1.6 | 8.0 | 0.00 | 1.50 | 1.42 | 86 | 1014.4 |
| 20260903190018 | 25 | 250 | 0.0 | 8.0 | 0.00 | 1.50 | 1.42 | 86 | 1014.6 |
| 20260903184516 | 25 | 75 | 0.0 | 6.4 | 0.00 | 1.55 | 1.42 | 87 | 1014.7 |
| 20260903183014 | 25 | 246 | 0.0 | 1.6 | 0.00 | 1.55 | 1.42 | 88 | 1014.9 |
| 20260903181512 | 25 | 21 | 0.0 | 8.0 | 0.00 | 1.55 | 1.42 | 88 | 1014.9 |
| 20260903180009 | 24 | 53 | 3.2 | 8.0 | 0.00 | 1.55 | 1.42 | 89 | 1015.1 |
| 20260903174507 | 23 | 34 | 0.0 | 8.0 | 0.00 | 1.57 | 1.42 | 90 | 1014.9 |
| 20260903173004 | 23 | 156 | 1.6 | 8.0 | 0.00 | 1.57 | 1.42 | 92 | 1015.1 |
| 20260903171604 | 22 | 44 | 1.6 | 12.9 | 0.00 | 1.57 | 1.42 | 97 | 1015.5 |
| 20260903170058 | 22 | 291 | 0.0 | 11.3 | 0.00 | 1.57 | 1.42 | 99 | 1015.7 |
| 20260903164602 | 22 | 299 | 0.0 | 6.4 | 0.00 | 1.57 | 1.42 | 100 | 1015.8 |
| 20260903163057 | 21 | 274 | 3.2 | 8.0 | 0.00 | 1.57 | 1.42 | 100 | 1015.9 |
| 20260903161553 | 21 | 317 | 0.0 | 9.7 | 0.00 | 1.57 | 1.42 | 100 | 1016.0 |
| 20260903160050 | 20 | 266 | 1.6 | 6.4 | 0.00 | 1.57 | 1.42 | 100 | 1016.0 |
| 20260903154604 | 20 | 255 | 0.0 | 3.2 | 0.00 | 1.57 | 1.42 | 100 | 1016.3 |
| 20260903153043 | 20 | 279 | 0.0 | 11.3 | 0.00 | 1.57 | 1.42 | 100 | 1016.5 |
| 20260903151541 | 20 | 9 | 1.6 | 6.4 | 0.00 | 1.57 | 1.42 | 100 | 1016.8 |
| 20260903150041 | 20 | 266 | 1.6 | 6.4 | 0.00 | 1.57 | 1.42 | 100 | 1016.8 |
| 20260903144539 | 19 | 36 | 1.6 | 9.7 | 0.00 | 1.57 | 1.42 | 100 | 1016.6 |
| 20260903143045 | 19 | 295 | 0.0 | 8.0 | 0.00 | 1.57 | 1.42 | 100 | 1016.7 |
| 20260903141546 | 18 | 306 | 3.2 | 9.7 | 0.00 | 1.57 | 1.42 | 100 | 1016.6 |
| 20260903140038 | 18 | 267 | 0.0 | 1.6 | 0.00 | 1.57 | 1.42 | 100 | 1016.4 |
| 20260903134534 | 18 | 320 | 0.0 | 11.3 | 0.00 | 1.57 | 1.42 | 100 | 1016.4 |
| 20260903133035 | 18 | 288 | 0.0 | 8.0 | 0.00 | 1.57 | 1.42 | 100 | 1016.1 |
| 20260903131530 | 18 | 339 | 1.6 | 6.4 | 0.00 | 1.57 | 1.42 | 100 | 1016.4 |
| 20260903130035 | 18 | 317 | 0.0 | 6.4 | 0.00 | 1.57 | 1.42 | 100 | 1016.2 |
| 20260903124529 | 18 | 285 | 0.0 | 6.4 | 0.00 | 1.57 | 1.42 | 100 | 1016.0 |
| 20260903123034 | 18 | 283 | 0.0 | 4.8 | 0.00 | 1.57 | 1.42 | 100 | 1016.3 |
| 20260903121528 | 18 | 289 | 0.0 | 4.8 | 0.00 | 1.57 | 1.42 | 100 | 1015.9 |
| 20260903120027 | 18 | 266 | 0.0 | 9.7 | 0.00 | 1.57 | 1.42 | 100 | 1016.1 |
| 20260903114526 | 17 | 264 | 1.6 | 9.7 | 0.00 | 1.57 | 1.42 | 100 | 1016.2 |
| 20260903113029 | 17 | 280 | 0.0 | 8.0 | 0.00 | 1.57 | 1.42 | 100 | 1016.1 |
| 20260903111535 | 17 | 234 | 0.0 | 6.4 | 0.00 | 1.57 | 1.42 | 100 | 1016.5 |
| 20260903110025 | 17 | 271 | 0.0 | 4.8 | 0.00 | 1.57 | 1.42 | 100 | 1016.3 |
| 20260903104524 | 17 | 303 | 1.6 | 6.4 | 0.00 | 1.57 | 1.42 | 100 | 1016.7 |
| 20260903103023 | 17 | 268 | 0.0 | 6.4 | 0.00 | 1.57 | 1.42 | 100 | 1016.9 |
| 20260903101534 | 17 | 291 | 0.0 | 6.4 | 0.00 | 1.57 | 1.42 | 100 | 1016.7 |
| 20260903100021 | 17 | 296 | 0.0 | 3.2 | 0.00 | 1.57 | 1.42 | 100 | 1016.7 |
| 20260903094522 | 17 | 302 | 0.0 | 4.8 | 0.00 | 1.57 | 1.42 | 100 | 1016.5 |
| 20260903093022 | 17 | 77 | 0.0 | 0.0 | 0.00 | 1.57 | 1.42 | 100 | 1016.2 |
| 20260903091521 | 17 | 164 | 0.0 | 1.6 | 0.03 | 1.57 | 1.42 | 100 | 1016.3 |
| 20260903090019 | 17 | 309 | 0.0 | 4.8 | 0.03 | 1.57 | 1.42 | 100 | 1016.5 |
| 20260903084521 | 17 | 8 | 0.0 | 3.2 | 0.08 | 1.57 | 1.42 | 100 | 1016.5 |
| 20260903083033 | 17 | 23 | 0.0 | 1.6 | 0.08 | 1.57 | 1.42 | 100 | 1016.5 |
| 20260903081529 | 17 | 212 | 0.0 | 1.6 | 0.05 | 1.55 | 1.40 | 100 | 1015.7 |
| 20260903080047 | 18 | 243 | 0.0 | 4.8 | 0.05 | 1.55 | 1.40 | 100 | 1015.4 |
| 20260903074513 | 18 | 271 | 0.0 | 6.4 | 0.03 | 1.50 | 1.35 | 100 | 1017.0 |
| 20260903073018 | 18 | 277 | 0.0 | 3.2 | 0.05 | 1.50 | 1.35 | 100 | 1017.3 |
| 20260903071512 | 18 | 51 | 0.0 | 1.6 | 0.05 | 1.50 | 1.35 | 100 | 1017.1 |
| 20260903070011 | 18 | 219 | 0.0 | 0.0 | 0.08 | 1.50 | 1.35 | 100 | 1016.8 |
| 20260903064510 | 17 | 198 | 0.0 | 0.0 | 0.10 | 1.45 | 1.32 | 100 | 1016.7 |
| 20260903063008 | 17 | 174 | 0.0 | 0.0 | 0.08 | 1.42 | 1.30 | 100 | 1016.8 |
| 20260903061505 | 17 | 231 | 0.0 | 1.6 | 0.10 | 1.42 | 1.30 | 100 | 1017.5 |
| 20260903060003 | 17 | 242 | 0.0 | 0.0 | 0.08 | 1.42 | 1.27 | 100 | 1017.9 |
| 20260903054501 | 17 | 248 | 0.0 | 0.0 | 0.13 | 1.37 | 1.22 | 100 | 1018.4 |
| 20260903053059 | 17 | 153 | 0.0 | 0.0 | 0.30 | 1.37 | 1.22 | 100 | 1018.6 |
| 20260903051558 | 17 | 153 | 0.0 | 0.0 | 0.51 | 1.35 | 1.19 | 100 | 1018.6 |
| 20260903050118 | 17 | 146 | 0.0 | 3.2 | 1.19 | 1.35 | 1.19 | 100 | 1018.4 |
| 20260903044553 | 17 | 23 | 0.0 | 0.0 | 1.17 | 1.24 | 1.09 | 100 | 1019.3 |
| 20260903043049 | 17 | 21 | 0.0 | 1.6 | 0.97 | 1.04 | 0.89 | 100 | 1020.1 |
| 20260903041552 | 17 | 32 | 4.8 | 16.1 | 0.76 | 0.84 | 0.69 | 100 | 1021.5 |
| 20260903040049 | 17 | 164 | 0.0 | 0.0 | 0.08 | 0.15 | 0.00 | 100 | 1020.7 |
| 20260903034543 | 17 | 164 | 0.0 | 0.0 | 0.00 | 0.08 | 0.08 | 100 | 1020.2 |
| 20260903033042 | 17 | 162 | 0.0 | 3.2 | 0.00 | 0.08 | 0.08 | 100 | 1019.5 |
| 20260903031541 | 17 | 153 | 0.0 | 3.2 | 0.00 | 0.08 | 0.08 | 100 | 1019.2 |
| 20260903030042 | 17 | 329 | 0.0 | 1.6 | 0.00 | 0.08 | 0.08 | 100 | 1019.5 |
| 20260903024540 | 17 | 146 | 0.0 | 3.2 | 0.00 | 0.08 | 0.08 | 100 | 1019.5 |
| 20260903023043 | 17 | 152 | 0.0 | 1.6 | 0.00 | 0.08 | 0.08 | 100 | 1019.8 |
| 20260903021539 | 17 | 150 | 0.0 | 3.2 | 0.00 | 0.08 | 0.08 | 100 | 1019.5 |